Home   Weather   Weiz   Past weeks

Flag for Austria Past Weather in Weiz, Styria, Austria — Yesterday and Last 2 Weeks

44 °F

Passing clouds.

Feels Like: N/A
Forecast: 31 / 57 °F
Wind: N/A

Location: Graz-Thalerhof-Flughafen

Current Time: Oct 24, 2016 at 1:57:51 AM

Latest Report: Oct 24, 2016 at 1:00 AM

Visibility: 9 mi

Pressure: 30.09 "Hg

Humidity: 95%

Dew Point: 42 °F

Location of WeizLocation

Past Weather in Weiz — Graph


Weiz Temperature Yesterday

Maximum temperature yesterday: 57 °F (at 5:00 PM)
Minimum temperature yesterday: 34 °F (at 2:00 AM)
Average temperature yesterday: 43 °F

High & Low Weather Summary for the Past Weeks

High65 °F (Oct 16, 4:00 PM)100% (Oct 11, 9:00 PM)30.31 "Hg (Oct 11, 9:00 PM)
Low29 °F (Oct 13, 6:00 AM)44% (Oct 12, 3:00 PM)29.92 "Hg (Oct 12, 5:00 AM)
Average46 °F88%30.11 "Hg
* Reported Oct 9 12:00 AM — Oct 24 12:00 AM, Weiz, Weather by CustomWeather, © 2016

Note: Actual official high and low records may vary slightly from our data, if they occured in-between our weather recording intervals... More about our weather records


Weiz Weather History for the Previous 24 Hours

Scroll right to see more
Time TempWeatherWind HumidityBarometerVisibility
12:00 AM
Mon, Oct 24
44 °FPassing clouds.N/A94%30.08 "Hg8 mi
11:00 PM
Sun, Oct 23
46 °FPassing clouds.N/A93%30.08 "Hg9 mi
10:00 PM44 °FPassing clouds.N/A92%30.07 "Hg7 mi
9:00 PM46 °FPassing clouds.N/A92%30.06 "Hg8 mi
8:00 PM47 °FPassing clouds.N/A89%30.05 "Hg10 mi
7:00 PM49 °FPassing clouds.N/A86%30.04 "Hg12 mi
6:00 PM53 °FPassing clouds.N/A73%30.02 "Hg5 mi
5:00 PM57 °FPassing clouds.N/A65%30.01 "Hg22 mi
4:00 PM56 °FScattered clouds.N/A68%30.00 "Hg18 mi
2:00 PM52 °FScattered clouds.N/A73%30.03 "Hg17 mi
1:00 PM47 °FScattered clouds.N/A89%30.06 "Hg9 mi
12:00 PM41 °FScattered clouds.N/A99%30.08 "Hg3 mi
11:00 AM39 °FLight snow. Partly sunny.N/A100%30.08 "Hg0 mi
10:00 AM38 °FLight snow. Low clouds.N/A100%30.10 "Hg0 mi
9:00 AM36 °FLight snow. Low clouds.N/A100%30.09 "Hg0 mi
8:00 AM36 °FLight snow. Dense fog.N/A100%30.09 "Hg0 mi
7:00 AM36 °FLight snow. Low clouds.N/A100%30.08 "Hg0 mi
6:00 AM36 °FLight snow. Low clouds.N/A100%30.08 "Hg0 mi
5:00 AM36 °FLight snow. Low clouds.N/A100%30.08 "Hg0 mi
4:00 AM36 °FLight snow. Low clouds.N/A100%30.08 "Hg0 mi
3:00 AM36 °FLight snow. Passing clouds.N/A100%30.09 "Hg0 mi
2:00 AM34 °FLight rain. Passing clouds.N/A99%30.10 "Hg0 mi
1:00 AM36 °FLight rain. Overcast.N/A98%30.10 "Hg0 mi
Weather by CustomWeather, © 2016

See weather overviewHow to use our weather pages